Powrót do katalogu

STARLINK-31661

AktywnyŁącznośćVLEO
NORAD 59735·PAYLOAD·🇺🇸 United States

Wystrzelony May 13, 2024 z Cape Canaveral Space Force Station

Loading…

Następne Przeloty (najbliższe 24 godziny)

TLE

ŚwieżeSource: CelesTrak SupGP

Epoka: Sep 14, 2026, 22:13 UTC

1 59735C 24090F   26257.92618056 -.00003954  00000+0 -14311-3 0  2575
2 59735  43.0028 187.7450 0001125 267.8929  63.2596 15.27607265    15

Śledź STARLINK-31661 w czasie rzeczywistym z AllMySat

Download on the App Store